CW8398 Weather Reports


Display with metric or nautical units.
time (UTC)temp
F
wind
direction
speed
MPH
gust
MPH
rain 1hr
in
rain 24hr
in
rain mn
in
humidity
%
barometer
mb
20260505153303 48 4 5.0 8.0 0.00 0.00 0.00 77 1005.2
20260505152803 48 11 2.0 8.0 0.00 0.00 0.00 74 1005.2
20260505151803 50 347 2.0 5.0 0.00 0.00 0.00 61 1005.2
20260505150803 51 21 4.0 10.0 0.00 0.00 0.00 49 1005.2
20260505150302 51 335 2.0 6.0 0.00 0.00 0.00 42 1005.2
20260505140303 53 27 4.0 10.0 0.00 0.00 0.00 38 1005.0
20260505130303 53 327 3.0 9.0 0.00 0.00 0.00 40 1004.9
20260505124803 53 9 4.0 6.0 0.00 0.00 0.00 40 1004.9
20260505124303 53 77 3.0 10.0 0.00 0.00 0.00 40 1004.9
20260505122803 51 304 3.0 5.0 0.00 0.00 0.00 44 1004.8
20260505121803 52 268 7.0 12.0 0.00 0.00 0.00 40 1004.8
20260505120803 52 288 3.0 9.0 0.00 0.00 0.00 43 1004.8
20260505120303 51 283 3.0 7.0 0.00 0.00 0.00 43 1004.8
20260505115305 51 270 6.0 12.0 0.00 0.00 0.00 43 1004.8
20260505114803 51 288 3.0 9.0 0.00 0.00 0.00 45 1004.7
20260505113803 51 282 3.0 8.0 0.00 0.00 0.00 46 1004.7
20260505113303 51 283 3.0 9.0 0.00 0.00 0.00 50 1004.7
20260505112803 50 295 4.0 5.0 0.00 0.00 0.00 49 1004.7
20260505112305 51 2 2.0 5.0 0.00 0.00 0.00 51 1004.7
20260505111803 51 63 2.0 10.0 0.00 0.00 0.00 50 1004.7
20260505111303 51 270 3.0 10.0 0.00 0.00 0.00 50 1004.7
20260505110803 52 213 2.0 6.0 0.00 0.00 0.00 50 1004.7
20260505110303 52 341 2.0 6.0 0.00 0.00 0.00 50 1004.6
20260505101803 49 307 3.0 8.0 0.00 0.00 0.00 61 1004.3
20260505100803 48 57 2.0 6.0 0.00 0.00 0.00 62 1004.3
20260505100303 48 268 2.0 5.0 0.00 0.00 0.00 61 1004.3
20260505095803 48 307 3.0 8.0 0.00 0.00 0.00 61 1004.3
20260505094803 49 304 2.0 6.0 0.00 0.00 0.00 62 1004.3
20260505094303 49 14 3.0 7.0 0.00 0.00 0.00 61 1004.3
20260505093803 49 38 3.0 7.0 0.00 0.00 0.00 61 1003.6
20260505092305 49 219 2.0 8.0 0.00 0.00 0.00 63 1003.6
20260505091303 49 340 2.0 8.0 0.00 0.00 0.00 64 1003.6
20260505090303 49 299 2.0 9.0 0.00 0.00 0.00 64 1003.6
20260505085803 49 279 5.0 9.0 0.00 0.00 0.00 64 1003.6
20260505085304 49 326 2.0 6.0 0.00 0.00 0.00 62 1003.6
20260505084303 49 303 2.0 7.0 0.00 0.00 0.00 64 1003.6
20260505083803 49 249 4.0 8.0 0.00 0.00 0.00 64 1003.6
20260505083304 49 294 4.0 8.0 0.00 0.00 0.00 63 1003.6
20260505082803 49 310 3.0 10.0 0.00 0.00 0.00 64 1003.6
20260505082304 48 349 2.0 7.0 0.00 0.00 0.00 69 1003.6
20260505081803 47 355 3.0 6.0 0.00 0.00 0.00 69 1003.6
20260505081303 48 338 2.0 3.0 0.00 0.00 0.00 67 1003.6
20260505080804 48 248 1.0 7.0 0.00 0.00 0.00 67 1003.6
20260505080303 47 273 2.0 7.0 0.00 0.00 0.00 67 1003.6
20260505075304 47 36 1.0 8.0 0.00 0.00 0.00 67 1003.6
20260505074804 47 280 4.0 8.0 0.00 0.00 0.00 67 1003.4
20260505074303 47 347 3.0 7.0 0.00 0.00 0.00 68 1003.4
20260505073303 47 191 0.0 3.0 0.00 0.00 0.00 69 1003.4
20260505072803 47 35 3.0 9.0 0.00 0.00 0.00 70 1001.1
20260505072305 46 268 3.0 7.0 0.00 0.00 0.00 70 1001.1
20260505071803 46 267 1.0 3.0 0.00 0.00 0.00 69 1001.1
20260505071303 46 27 2.0 8.0 0.00 0.00 0.00 69 1001.1
20260505070804 46 345 2.0 3.0 0.00 0.00 0.00 70 1001.1
20260505070303 46 313 2.0 5.0 0.00 0.00 0.00 70 1001.1
20260505065803 46 5 3.0 7.0 0.00 0.00 0.00 71 1001.1
20260505065304 46 32 4.0 10.0 0.00 0.00 0.00 71 1001.1
20260505064803 45 343 2.0 6.0 0.00 0.00 0.00 73 1001.1
20260505063803 45 263 5.0 10.0 0.00 0.00 0.00 73 1001.1
20260505063303 45 279 5.0 12.0 0.00 0.00 0.00 73 1001.1
20260505062803 45 116 2.0 9.0 0.00 0.00 0.00 75 1001.1
20260505062304 45 355 3.0 8.0 0.00 0.00 0.00 76 1001.1
20260505061803 45 13 2.0 6.0 0.00 0.00 0.00 77 1001.1
20260505060803 45 6 3.0 7.0 0.00 0.00 0.00 77 1001.1
20260505060303 45 45 3.0 8.0 0.00 0.00 0.00 77 1001.1
20260505055803 45 25 3.0 6.0 0.00 0.00 0.00 78 1001.1
20260505055304 45 5 2.0 9.0 0.00 0.00 0.00 78 1001.1
20260505054803 45 343 5.0 9.0 0.00 0.00 0.00 78 1001.1
20260505054303 45 351 3.0 7.0 0.00 0.00 0.00 78 1001.1
20260505053803 45 3 2.0 6.0 0.00 0.00 0.00 79 1001.1
20260505053303 45 315 3.0 8.0 0.00 0.00 0.00 79 1001.1
20260505052803 45 318 2.0 6.0 0.00 0.00 0.00 79 1001.1
20260505052304 45 353 2.0 10.0 0.00 0.00 0.00 78 1001.1
20260505051803 45 5 3.0 7.0 0.00 0.00 0.00 78 1001.1
20260505051303 46 331 3.0 9.0 0.00 0.00 0.00 78 1001.1
20260505050803 46 353 2.0 9.0 0.00 0.00 0.00 77 1001.1
20260505050304 46 340 3.0 9.0 0.00 0.00 0.00 77 1001.1
20260505041303 46 21 2.0 6.0 0.00 0.02 0.00 75 1001.1
20260505040803 46 321 3.0 8.0 0.00 0.02 0.00 74 1001.1
20260505040304 46 304 3.0 8.0 0.00 0.02 0.00 74 1001.1
20260505035803 46 302 4.0 12.0 0.00 0.02 0.00 73 1001.1
20260505035304 46 280 3.0 10.0 0.00 0.02 0.00 74 1001.1
20260505034804 47 276 5.0 9.0 0.00 0.02 0.00 76 1001.1
20260505033803 47 243 2.0 5.0 0.00 0.02 0.00 76 1000.1
20260505033303 47 251 2.0 8.0 0.00 0.02 0.00 76 1000.1
20260505032803 47 277 2.0 8.0 0.00 0.02 0.00 76 1000.1
20260505032304 47 262 4.0 9.0 0.00 0.02 0.00 76 1000.1
20260505031804 47 255 3.0 12.0 0.00 0.02 0.00 75 1000.1
20260505031304 47 274 3.0 10.0 0.00 0.02 0.00 75 1000.1
20260505030803 47 243 2.0 10.0 0.00 0.02 0.00 75 1000.1
20260505030303 47 224 3.0 12.0 0.00 0.02 0.00 74 1000.1
20260505025804 47 209 5.0 12.0 0.00 0.02 0.00 74 1000.1
20260505025304 47 201 2.0 13.0 0.00 0.02 0.00 74 1000.1
20260505024803 47 193 3.0 13.0 0.00 0.02 0.00 73 1000.1
20260505024303 47 254 4.0 12.0 0.00 0.02 0.00 73 1000.1
20260505023804 47 243 2.0 14.0 0.00 0.02 0.00 72 1000.1
20260505023303 47 206 7.0 14.0 0.00 0.02 0.00 72 1000.1
20260505022804 47 217 3.0 12.0 0.00 0.02 0.00 72 1000.1
20260505022304 47 183 6.0 14.0 0.00 0.02 0.00 71 1000.1
20260505021803 47 199 3.0 9.0 0.00 0.02 0.00 71 1000.1
20260505021304 47 189 5.0 12.0 0.00 0.02 0.00 70 1000.1
20260505020803 47 207 5.0 13.0 0.00 0.02 0.00 69 1000.1
20260505020303 47 171 4.0 9.0 0.00 0.02 0.00 69 1000.1
20260505015304 46 188 5.0 10.0 0.00 0.02 0.00 68 1000.1
20260505014804 46 201 5.0 9.0 0.00 0.02 0.00 68 1000.1
20260505014303 46 206 3.0 13.0 0.00 0.02 0.00 67 1000.1
20260505012803 46 184 4.0 8.0 0.00 0.02 0.00 67 1000.1
20260505012304 46 182 3.0 17.0 0.00 0.02 0.00 67 1000.1
20260505011304 47 191 3.0 7.0 0.00 0.02 0.00 66 1000.0
20260505010804 47 181 3.0 9.0 0.00 0.02 0.00 66 1000.0
20260505010303 47 172 3.0 7.0 0.00 0.02 0.00 66 1000.0
20260505005804 47 164 2.0 6.0 0.00 0.02 0.00 65 1000.0
20260505005304 47 194 4.0 12.0 0.00 0.02 0.00 65 1000.0
20260505004304 47 200 4.0 8.0 0.00 0.02 0.00 65 1000.5
20260505003804 47 193 3.0 9.0 0.00 0.02 0.00 65 1000.5
20260505003304 47 192 2.0 7.0 0.00 0.02 0.00 65 1000.5
20260505002803 47 171 3.0 9.0 0.00 0.02 0.00 65 1000.5
20260505001303 47 167 2.0 6.0 0.00 0.02 0.00 64 1000.5
20260505000803 47 174 3.0 6.0 0.00 0.02 0.00 64 1000.5
20260504235803 47 172 2.0 8.0 0.00 0.02 0.00 64 1000.5
20260504234803 47 187 3.0 8.0 0.00 0.02 0.00 64 1000.5
20260504234304 47 169 5.0 10.0 0.00 0.02 0.00 64 1000.5
20260504233803 47 187 2.0 8.0 0.00 0.02 0.00 64 1000.5
20260504233304 47 169 3.0 7.0 0.00 0.02 0.00 65 1000.5
20260504232803 47 169 3.0 5.0 0.00 0.02 0.00 65 1000.5
20260504231803 47 168 2.0 5.0 0.00 0.02 0.00 65 1000.5
20260504231303 47 175 2.0 5.0 0.00 0.02 0.00 65 1000.5
20260504230303 47 170 2.0 6.0 0.00 0.02 0.00 65 1000.5
20260504225304 47 177 2.0 6.0 0.00 0.02 0.00 65 1000.5
20260504224304 47 178 2.0 7.0 0.00 0.02 0.00 66 1000.7
20260504223804 47 169 3.0 7.0 0.00 0.02 0.00 66 1000.7
20260504223303 47 180 4.0 8.0 0.00 0.02 0.00 66 1000.7
20260504222804 47 169 3.0 6.0 0.00 0.02 0.00 67 1000.7
20260504222305 47 165 2.0 8.0 0.00 0.02 0.00 67 1000.7
20260504221804 47 168 2.0 3.0 0.00 0.02 0.00 67 1000.8
20260504221304 47 200 2.0 3.0 0.00 0.02 0.00 68 1000.8
20260504220817 47 183 2.0 5.0 0.00 0.02 0.00 68 1000.8
20260504220304 47 166 2.0 3.0 0.00 0.02 0.00 69 1000.8
20260504215802 47 179 1.0 3.0 0.00 0.02 0.02 69 1000.8
20260504214801 47 211 2.0 6.0 0.00 0.02 0.02 70 1000.8
20260504214301 47 170 2.0 5.0 0.00 0.02 0.02 70 1000.8
20260504213802 47 167 2.0 5.0 0.00 0.02 0.02 71 1000.8
20260504213302 47 170 2.0 5.0 0.00 0.02 0.02 71 1000.8
20260504212801 47 186 3.0 7.0 0.00 0.02 0.02 72 1000.8
20260504212303 47 170 3.0 7.0 0.00 0.02 0.02 72 1000.8
20260504211802 47 172 2.0 5.0 0.00 0.02 0.02 73 1000.8
20260504211302 47 185 1.0 3.0 0.00 0.02 0.02 73 1000.8
20260504210802 48 172 3.0 5.0 0.00 0.02 0.02 74 1000.8
20260504210302 48 166 2.0 6.0 0.00 0.02 0.02 74 1000.8
20260504205303 48 171 2.0 3.0 0.00 0.02 0.02 75 1000.8
20260504204802 48 165 2.0 5.0 0.00 0.02 0.02 75 1000.8
20260504204302 48 192 2.0 6.0 0.00 0.02 0.02 75 1000.8
20260504203802 48 182 1.0 3.0 0.00 0.02 0.02 75 1000.8
20260504203302 48 171 3.0 6.0 0.00 0.02 0.02 75 1000.8
20260504202802 48 166 3.0 6.0 0.00 0.02 0.02 75 1000.8
20260504202304 48 159 3.0 5.0 0.00 0.02 0.02 75 1000.8
20260504201802 49 161 2.0 3.0 0.00 0.02 0.02 75 1000.6
20260504201302 49 167 2.0 5.0 0.00 0.02 0.02 75 1000.6
20260504200302 49 158 2.0 3.0 0.00 0.02 0.02 75 1000.6
20260504195802 49 185 2.0 5.0 0.00 0.02 0.02 74 1000.6
20260504195304 49 155 2.0 5.0 0.00 0.02 0.02 74 1000.6
20260504194302 50 159 2.0 3.0 0.00 0.02 0.02 74 1000.6
20260504193802 50 168 2.0 3.0 0.00 0.02 0.02 73 1000.6
20260504192802 51 159 3.0 7.0 0.00 0.02 0.02 73 1000.6
20260504192304 51 157 1.0 3.0 0.00 0.02 0.02 72 1000.6
20260504191802 51 158 2.0 3.0 0.00 0.02 0.02 72 1000.6
20260504191302 51 166 2.0 3.0 0.00 0.02 0.02 71 1000.6
20260504190801 52 172 1.0 3.0 0.00 0.02 0.02 71 1000.6
20260504190303 52 169 2.0 6.0 0.00 0.02 0.02 70 1000.6
20260504185802 52 176 2.0 5.0 0.00 0.02 0.02 70 1000.6
20260504185304 52 190 1.0 3.0 0.00 0.02 0.02 69 1000.6
20260504183802 53 192 2.0 5.0 0.00 0.02 0.02 68 1000.6
20260504183301 53 196 2.0 5.0 0.00 0.02 0.02 68 1000.6
20260504182802 53 191 1.0 5.0 0.00 0.02 0.02 67 1000.6
20260504182304 54 183 2.0 6.0 0.00 0.02 0.02 67 1000.6
20260504181303 54 173 1.0 3.0 0.00 0.02 0.02 66 1000.6
20260504180803 54 224 1.0 3.0 0.00 0.02 0.02 66 1000.6
20260504175802 54 215 5.0 10.0 0.00 0.02 0.02 65 1000.6
20260504175304 55 178 2.0 9.0 0.00 0.02 0.02 65 1000.6
20260504174302 55 241 5.0 10.0 0.00 0.02 0.02 65 1000.6
20260504173802 55 162 3.0 8.0 0.00 0.02 0.02 64 1000.2
20260504172304 55 248 7.0 14.0 0.00 0.02 0.02 63 1000.2
20260504171802 55 222 5.0 10.0 0.00 0.02 0.02 62 1000.2
20260504171302 55 275 5.0 9.0 0.00 0.02 0.02 61 1000.2
20260504170802 55 14 3.0 10.0 0.00 0.02 0.02 60 1000.2
20260504170302 55 245 5.0 9.0 0.00 0.02 0.02 59 1000.2